| time (UTC) | temp F | wind direction | speed knots | gust knots | rain 1hr in | rain 24hr in | rain mn in | humidity % | barometer mb |
| 20260502220056 | 49 | 340 | 0.0 | 1.7 | 0.00 | 0.07 | 0.07 | 83 | 1009.3 |
| 20260502214523 | 49 | 120 | 0.0 | 2.6 | 0.00 | 0.07 | 0.07 | 81 | 1009.3 |
| 20260502213101 | 49 | 296 | 0.0 | 0.9 | 0.00 | 0.07 | 0.07 | 80 | 1009.3 |
| 20260502211539 | 49 | 301 | 0.0 | 0.9 | 0.00 | 0.07 | 0.07 | 79 | 1009.6 |
| 20260502210014 | 49 | 259 | 0.0 | 0.0 | 0.00 | 0.07 | 0.07 | 79 | 1009.6 |
| 20260502204552 | 49 | 167 | 0.0 | 0.9 | 0.00 | 0.07 | 0.07 | 79 | 1009.2 |
| 20260502203030 | 49 | 161 | 0.0 | 1.7 | 0.00 | 0.07 | 0.07 | 78 | 1009.2 |
| 20260502201517 | 49 | 168 | 0.0 | 1.7 | 0.00 | 0.07 | 0.07 | 79 | 1009.3 |
| 20260502200121 | 49 | 169 | 0.0 | 2.6 | 0.00 | 0.07 | 0.07 | 78 | 1009.4 |
| 20260502194538 | 50 | 180 | 0.0 | 3.5 | 0.00 | 0.07 | 0.07 | 77 | 1009.6 |
| 20260502193009 | 50 | 199 | 0.0 | 2.6 | 0.00 | 0.07 | 0.07 | 80 | 1009.5 |
| 20260502191556 | 50 | 233 | 0.9 | 4.3 | 0.00 | 0.07 | 0.07 | 79 | 1009.7 |
| 20260502190031 | 50 | 177 | 0.0 | 3.5 | 0.00 | 0.07 | 0.07 | 79 | 1009.8 |
| 20260502184546 | 51 | 192 | 0.0 | 4.3 | 0.00 | 0.07 | 0.07 | 80 | 1010.0 |
| 20260502183034 | 50 | 134 | 0.9 | 4.3 | 0.00 | 0.07 | 0.07 | 85 | 1010.1 |
| 20260502181511 | 49 | 242 | 0.9 | 7.0 | 0.00 | 0.07 | 0.07 | 84 | 1010.2 |
| 20260502163047 | 48 | 198 | 0.0 | 1.7 | 0.00 | 0.07 | 0.07 | 88 | 1010.3 |
| 20260502161512 | 47 | 214 | 0.0 | 2.6 | 0.00 | 0.07 | 0.07 | 87 | 1010.4 |
| 20260502151559 | 48 | 150 | 0.0 | 3.5 | 0.01 | 0.07 | 0.07 | 88 | 1010.7 |
| 20260502123042 | 44 | 53 | 0.0 | 5.2 | 0.02 | 0.02 | 0.02 | 84 | 1011.2 |
| 20260502121519 | 44 | 100 | 0.0 | 6.1 | 0.02 | 0.02 | 0.02 | 84 | 1011.1 |
| 20260502114543 | 45 | 82 | 2.6 | 7.8 | 0.01 | 0.01 | 0.01 | 81 | 1011.8 |
| 20260502113035 | 45 | 54 | 0.0 | 1.7 | 0.00 | 0.00 | 0.00 | 78 | 1012.0 |
| 20260502111505 | 44 | 104 | 0.0 | 2.6 | 0.00 | 0.00 | 0.00 | 76 | 1011.8 |
| 20260502110051 | 44 | 88 | 0.0 | 0.9 | 0.00 | 0.00 | 0.00 | 78 | 1011.5 |
| 20260502104518 | 43 | 74 | 0.0 | 0.9 | 0.00 | 0.00 | 0.00 | 78 | 1011.4 |
| 20260502103101 | 43 | 101 | 0.0 | 0.0 | 0.00 | 0.00 | 0.00 | 78 | 1011.3 |
| 20260502101527 | 42 | 101 | 0.0 | 0.0 | 0.00 | 0.00 | 0.00 | 78 | 1011.0 |
| 20260502091510 | 40 | 103 | 0.0 | 1.7 | 0.00 | 0.00 | 0.00 | 77 | 1010.3 |
| 20260502090112 | 39 | 93 | 0.0 | 1.7 | 0.00 | 0.00 | 0.00 | 77 | 1010.6 |
| 20260502071527 | 38 | 331 | 0.0 | 0.0 | 0.00 | 0.00 | 0.00 | 79 | 1011.2 |
| 20260502070030 | 38 | 331 | 0.0 | 0.0 | 0.00 | 0.00 | 0.00 | 80 | 1011.2 |
| 20260502064604 | 38 | 331 | 0.0 | 0.0 | 0.00 | 0.00 | 0.00 | 80 | 1011.0 |
| 20260502063036 | 37 | 331 | 0.0 | 0.0 | 0.00 | 0.00 | 0.00 | 81 | 1010.8 |
| 20260502061501 | 37 | 331 | 0.0 | 0.0 | 0.00 | 0.00 | 0.00 | 81 | 1010.6 |
| 20260502060041 | 36 | 331 | 0.0 | 0.0 | 0.00 | 0.00 | 0.00 | 81 | 1010.6 |
| 20260502054529 | 36 | 331 | 0.0 | 0.0 | 0.00 | 0.00 | 0.00 | 81 | 1010.5 |
| 20260502053057 | 36 | 331 | 0.0 | 0.0 | 0.00 | 0.00 | 0.00 | 80 | 1010.4 |
| 20260502051533 | 36 | 331 | 0.0 | 0.0 | 0.00 | 0.00 | 0.00 | 79 | 1010.5 |
| 20260502050033 | 36 | 331 | 0.0 | 0.0 | 0.00 | 0.00 | 0.00 | 78 | 1010.5 |
| 20260502044557 | 37 | 331 | 0.0 | 0.0 | 0.00 | 0.00 | 0.00 | 77 | 1010.4 |
| 20260502043027 | 37 | 331 | 0.0 | 0.0 | 0.00 | 0.00 | 0.00 | 75 | 1010.4 |
| 20260502041502 | 38 | 331 | 0.0 | 0.0 | 0.00 | 0.00 | 0.00 | 74 | 1010.3 |
| 20260502040039 | 38 | 331 | 0.0 | 0.0 | 0.00 | 0.00 | 0.00 | 74 | 1010.2 |
| 20260502034521 | 39 | 331 | 0.0 | 0.0 | 0.00 | 0.00 | 0.00 | 73 | 1010.2 |
| 20260502033100 | 39 | 331 | 0.0 | 0.0 | 0.00 | 0.00 | 0.00 | 72 | 1010.2 |
| 20260502031540 | 40 | 331 | 0.0 | 0.0 | 0.00 | 0.00 | 0.00 | 69 | 1010.2 |
| 20260502030015 | 40 | 331 | 0.0 | 0.0 | 0.00 | 0.00 | 0.00 | 67 | 1010.0 |
| 20260502024605 | 41 | 331 | 0.0 | 0.0 | 0.00 | 0.00 | 0.00 | 66 | 1010.1 |
| 20260502023028 | 42 | 331 | 0.0 | 0.0 | 0.00 | 0.00 | 0.00 | 64 | 1010.0 |
| 20260502021502 | 42 | 331 | 0.0 | 0.0 | 0.00 | 0.00 | 0.00 | 62 | 1010.0 |
| 20260502020042 | 43 | 331 | 0.0 | 0.0 | 0.00 | 0.00 | 0.00 | 59 | 1010.1 |
| 20260502014517 | 44 | 331 | 0.0 | 0.0 | 0.00 | 0.00 | 0.00 | 59 | 1010.0 |
| 20260502013006 | 45 | 331 | 0.0 | 0.0 | 0.00 | 0.00 | 0.00 | 55 | 1010.0 |
| 20260502011546 | 46 | 331 | 0.0 | 0.0 | 0.00 | 0.00 | 0.00 | 54 | 1009.9 |
| 20260502010035 | 47 | 331 | 0.0 | 0.0 | 0.00 | 0.00 | 0.00 | 50 | 1009.6 |
| 20260502004508 | 49 | 331 | 0.0 | 0.0 | 0.00 | 0.00 | 0.00 | 48 | 1009.4 |
| 20260502003049 | 50 | 331 | 0.0 | 0.0 | 0.00 | 0.00 | 0.00 | 46 | 1009.2 |
| 20260502001524 | 52 | 331 | 0.0 | 0.0 | 0.00 | 0.00 | 0.00 | 42 | 1009.0 |
| 20260502000123 | 53 | 331 | 0.0 | 0.0 | 0.00 | 0.00 | 0.00 | 36 | 1008.7 |
| 20260501234536 | 54 | 335 | 0.0 | 4.3 | 0.00 | 0.00 | 0.00 | 35 | 1008.5 |
| 20260501233021 | 55 | 330 | 0.0 | 7.0 | 0.00 | 0.00 | 0.00 | 33 | 1008.2 |
| 20260501231507 | 56 | 86 | 0.0 | 4.3 | 0.00 | 0.00 | 0.00 | 32 | 1007.9 |
| 20260501230045 | 56 | 336 | 0.0 | 5.2 | 0.00 | 0.00 | 0.00 | 31 | 1007.7 |
| 20260501224515 | 57 | 312 | 1.7 | 7.0 | 0.00 | 0.00 | 0.00 | 30 | 1007.5 |
| 20260501223051 | 58 | 325 | 0.9 | 12.2 | 0.00 | 0.00 | 0.00 | 30 | 1007.2 |
| 20260501221536 | 59 | 315 | 1.7 | 7.0 | 0.00 | 0.00 | 0.00 | 30 | 1006.9 |